ASTRA 1N

Last updated on Mon Sep 07 2026 00:02:58 GMT+0000 (Coordinated Universal Time)

1 37775U 11041A 26249.31042098 .00000104 00000+0 00000+0 0 9999 2 37775 0.0663 358.4737 0004967 148.7620 329.1096 1.00269967 45343
UTC large
Height (km)
Speed (km/s)
/
Latitude / Longitude
Inclination (degrees)
Orbital Period (minutes)
Azimuth
Elevation
Range (km)
Doppler Factor

Next 0 passes for location: London (51.5072 / 0.1276)

No passes found over London.
ASTRA 1N